Voltar ao catálogo

DELTA 1 DEB

AtivoSSO
NORAD 7136·DEBRIS·🇺🇸 United States

Lançado Nov 6, 1973 de Vandenberg Space Force Base

Loading…

Próximas Passagens (próximas 24 horas)

TLE

AtualizadoSource: Space-Track

Época: Sep 14, 2026, 04:49 UTC

1 07136U 73086DA  26257.20089456  .00000080  00000-0  77525-3 0  9994
2 07136 101.6052 233.4330 0043677 276.9631  96.8929 12.53977089412655

Acompanhe DELTA 1 DEB em tempo real com AllMySat

Download on the App Store